{"data":{"norad_id":63781,"intl_designator":"2025-091G","name":"STARLINK-33883","alt_names":[],"object_type":"PAYLOAD","status":"ACTIVE","operator":null,"country":"US","launch_date":"2025-05-02","launch_site_code":"AFETR","launch_vehicle":null,"mission":null,"orbit_class":"UNKNOWN","rcs_meters":null,"size_class":null,"mass_kg":null,"dimensions":null,"purposes":["comms"],"wikipedia_slug":null,"has_3d_model":false,"image_url":null,"decayed_at":null,"tle_current":{"epoch":"2026-05-24T21:21:22.525056Z","epoch_age_seconds":84583,"freshness":"FRESH","line1":"1 63781U 25091G   26144.88984404  .00029566  00000+0  10797-2 0  9997","line2":"2 63781  42.9996 342.3956 0001460 255.7019 104.3671 15.27577049 60553","mean_motion":15.27577049,"eccentricity":0.000146,"inclination_deg":42.9996,"raan_deg":342.3956,"arg_perigee_deg":255.7019,"mean_anomaly_deg":104.3671,"bstar":0.0010797,"rev_number":6055,"period_min":94.266930819802,"perigee_km":482.05619794936,"apogee_km":484.05966686963,"semimajor_km":6861.1949324095,"source":"CELESTRAK","updated_at":"2026-05-25T13:38:20.134164Z"}}}